Wetbulb
53.08 53.22 53.61 53.67 53.98 54.32 54.23 54.38 54.43 54.60 54.07 53.44 53.59 53.44 53.17 51.97 50.76 44.59 41.09 46.52 47.09 47.46 44.19 37.79 37.21 36.22 35.31 32.34 32.59 30.74 22.52 20.34 24.28 24.87 28.31 30.64 29.89 32.28 33.06 31.16 30.92 33.06 30.93 34.68 35.89
53.04 53.23 53.57 53.72 53.26 53.76 53.96 53.81 53.57 54.02 53.80 53.36 53.33 52.97 52.36 51.05 43.70 40.82 48.82 51.27 48.46 46.26 37.89 35.12 33.45 34.64 30.42 30.68 31.07 27.15 20.57 23.96 29.01 28.91 30.16 30.08 29.68 29.17 28.82 30.62 29.89 30.24 33.41 34.86 35.36
53.04 53.05 52.97 53.37 53.58 53.45 53.62 53.39 53.35 53.44 53.22 53.12 52.06 51.13 50.49 47.26 37.94 39.67 51.36 49.34 46.31 43.43 38.88 37.34 36.05 33.99 28.54 29.49 28.60 27.30 23.47 28.80 29.87 31.20 32.28 30.03 29.29 29.68 26.90 27.36 29.43 29.10 29.84 32.62 33.31
52.73 53.05 52.95 52.91 53.08 53.20 53.29 53.24 52.84 52.87 52.75 51.74 50.13 49.72 48.82 42.83 28.20 42.64 49.50 47.07 44.66 40.86 38.11 35.65 32.87 28.02 25.24 25.08 29.70 24.29 28.85 29.31 30.65 30.25 28.41 27.31 29.39 26.54 27.48 28.75 30.74 30.98 32.13 31.37 31.97
52.88 52.48 52.26 52.26 52.47 52.69 52.67 52.80 52.86 52.82 52.64 49.73 49.09 48.32 42.60 34.74 35.71 46.13 47.14 43.47 40.26 38.09 34.52 32.73 29.80 27.76 23.91 26.07 26.72 24.87 26.82 28.37 29.04 29.19 28.83 29.95 27.54 27.17 27.69 30.85 32.83 32.59 32.53 32.21 32.74
52.58 52.02 51.75 51.75 51.82 52.01 52.09 52.50 52.76 52.53 52.18 48.19 47.86 47.92 38.83 29.41 42.80 43.90 40.04 38.97 38.30 35.58 33.09 32.54 29.84 30.79 26.52 25.54 24.43 26.23 26.45 26.24 27.20 27.54 28.04 26.10 26.39 27.10 28.92 31.99 31.20 31.70 31.20 32.07 31.88
52.16 51.57 51.28 51.32 51.45 51.44 51.61 52.35 52.45 52.06 50.14 46.75 47.03 44.03 36.79 34.17 40.54 40.40 39.10 36.47 37.15 35.69 32.08 33.39 32.68 28.71 27.63 23.89 28.54 26.96 21.82 24.67 24.58 26.00 25.54 27.79 23.77 23.35 29.08 31.00 27.46 27.09 27.39 28.86 30.21
51.63 50.92 50.94 50.91 50.94 50.99 51.33 52.08 51.83 51.14 47.23 45.32 46.26 39.79 31.02 39.86 38.18 39.20 38.80 36.55 37.75 37.45 35.04 35.03 33.83 30.01 26.73 27.96 25.51 21.89 19.18 15.02 23.84 26.80 27.33 26.65 17.45 25.93 29.99 29.08 28.05 29.59 30.81 27.78 29.71
50.84 51.01 50.67 50.89 50.86 50.86 51.44 51.96 49.75 49.62 45.75 44.53 38.30 35.16 29.33 40.90 35.28 37.13 36.65 34.77 35.39 34.94 34.87 37.25 32.49 26.14 26.23 20.40 16.79 18.07 13.72 16.28 18.85 26.29 25.27 23.15 18.86 25.77 29.48 28.45 26.63 27.55 28.46 29.72 31.67
50.29 50.06 49.96 49.86 50.27 50.81 51.34 49.43 47.26 43.68 41.94 41.46 39.18 30.03 34.65 32.64 36.61 38.06 37.02 35.87 32.69 31.63 31.20 29.04 25.89 22.02 20.48 17.30 7.86 14.81 15.12 16.94 15.60 21.79 23.27 20.52 19.34 24.12 26.84 26.72 25.79 26.77 26.29 26.59 27.75
49.73 49.51 49.33 49.40 49.80 50.36 44.47 37.56 33.55 32.21 32.49 28.51 29.32 30.08 32.72 36.50 37.75 35.38 36.70 33.25 31.85 27.68 21.59 24.53 19.99 17.00 18.86 19.64 20.43 18.83 16.67 14.91 18.77 23.28 20.25 18.26 18.36 21.33 24.86 25.15 24.48 25.33 24.04 25.68 27.85
49.54 49.28 49.05 49.03 49.65 47.56 40.09 34.51 35.40 33.83 27.53 32.43 33.28 33.33 35.22 34.49 29.69 33.29 35.42 27.64 25.92 21.85 22.37 19.18 16.92 22.80 24.12 23.14 20.84 19.28 16.62 14.95 19.53 22.95 20.34 18.07 16.56 20.66 22.79 23.46 24.81 24.59 21.86 23.23 23.78
49.39 49.30 49.49 48.79 48.88 41.81 36.99 37.20 39.47 38.73 24.60 28.63 33.86 32.10 32.24 32.75 28.53 29.30 31.77 27.80 23.08 20.25 19.79 14.81 20.89 25.26 22.62 20.08 18.88 18.79 16.24 15.80 15.44 19.50 19.99 15.35 13.07 17.66 22.05 25.09 25.51 24.57 24.26 23.93 24.29
49.26 48.96 49.05 48.73 41.03 38.82 35.44 39.53 39.49 35.71 16.01 28.53 27.74 30.90 32.81 31.82 26.86 34.16 32.95 28.22 24.67 18.24 20.34 17.34 22.52 22.17 20.03 18.43 20.16 14.75 20.74 19.34 16.88 12.36 5.56 15.33 -0.14 12.31 20.21 22.43 22.98 23.64 24.87 26.10 26.66
49.06 48.74 48.47 47.36 38.30 36.83 40.13 40.46 39.62 32.17 15.04 27.16 27.16 34.57 32.08 28.54 29.81 29.05 32.90 27.55 21.02 21.89 17.23 14.83 19.15 19.50 15.78 19.15 21.86 17.70 21.28 18.29 16.30 11.61 2.55 7.22 0.76 9.46 18.41 16.83 20.09 22.00 23.32 24.80 25.20
48.55 48.27 47.62 41.22 38.24 39.08 39.88 38.60 36.21 20.20 11.91 24.76 27.23 26.82 26.04 27.88 27.16 27.64 26.96 28.39 26.32 18.79 20.06 19.73 24.42 18.11 19.03 19.96 20.25 20.64 14.47 14.89 5.34 -5.32 -10.56 3.96 0.91 6.22 15.98 18.24 20.65 23.09 24.01 24.45 23.44
48.17 47.81 43.96 41.97 35.46 39.75 37.41 31.94 20.84 14.92 26.40 21.59 22.94 24.66 24.66 22.04 23.02 21.31 18.17 13.37 7.53 7.35 2.74 14.40 17.69 20.65 21.12 11.54 11.54 7.40 2.28 0.07 -9.30 -11.79 -10.24 10.78 5.67 7.86 18.01 19.61 18.58 17.03 20.04 21.67 22.79
47.67 46.44 41.21 40.84 39.33 37.13 33.74 24.61 11.76 14.56 17.82 25.71 24.01 24.32 19.95 21.15 20.02 16.08 8.12 6.81 17.03 3.03 -4.39 -2.83 -2.11 14.33 19.83 15.07 4.68 9.83 5.41 1.61 -4.62 -7.37 -0.44 10.64 -7.31 8.22 20.02 20.86 21.26 20.70 20.35 22.80 20.55
45.98 37.95 36.65 38.39 39.02 35.81 27.89 13.95 15.30 22.44 24.75 22.49 21.44 13.62 15.61 20.84 15.84 11.89 6.78 6.85 15.33 5.96 1.57 -1.69 1.20 18.36 19.49 19.18 13.07 11.74 -2.56 11.11 6.66 -13.95 -8.76 -0.21 8.44 18.29 20.35 18.63 18.11 19.29 20.92 19.23 18.82
39.15 35.67 34.02 38.91 37.44 32.48 21.18 21.23 23.48 27.78 26.36 22.48 12.93 13.94 3.18 8.42 7.03 6.81 7.26 15.79 12.08 16.73 16.61 3.06 0.77 14.88 17.45 16.45 15.34 14.06 15.32 -0.26 -1.23 -6.00 -15.29 -5.02 -0.47 2.37 9.47 9.42 16.50 16.40 18.12 19.24 18.43
36.69 30.79 34.93 38.10 35.41 25.56 16.25 15.71 24.33 28.83 27.78 17.26 13.41 14.65 12.68 7.52 8.87 3.98 10.12 17.29 17.53 14.53 16.39 -1.71 -1.31 3.78 9.01 -3.30 -1.26 3.78 2.21 7.32 3.65 3.09 -2.14 -11.75 -6.89 1.68 1.03 1.78 9.94 14.19 20.01 17.41 15.46
35.51 26.79 34.89 35.65 21.72 14.89 15.51 22.08 29.74 26.01 26.68 24.68 22.44 19.08 13.91 9.07 5.33 7.89 12.02 15.88 19.13 17.57 3.78 11.09 6.06 -6.01 0.52 8.20 8.59 6.85 2.95 9.72 0.94 -6.17 -7.06 -8.97 -1.20 -1.87 -0.24 7.03 13.84 17.98 20.91 19.68 16.58
31.81 26.46 33.14 32.22 15.52 19.05 22.46 24.98 26.47 24.71 23.89 15.84 15.15 21.18 14.30 13.09 10.60 11.08 15.17 20.01 20.70 14.77 4.61 7.85 4.01 -2.45 -3.58 0.42 1.57 -5.59 -0.75 3.07 -2.16 -0.83 -8.10 -9.20 -4.47 4.00 14.99 15.47 18.78 19.34 18.18 16.79 15.28
31.85 24.64 24.60 24.53 24.58 18.77 18.51 20.94 19.68 25.49 22.91 25.12 22.05 22.63 10.58 8.84 13.93 10.30 14.35 20.38 21.57 18.90 24.03 16.23 -3.07 -1.82 -3.89 -1.67 -9.20 -7.68 -2.21 -3.35 -4.57 -9.58 -8.76 -3.64 2.49 8.77 11.58 13.67 17.12 17.88 17.76 11.69 8.86
31.92 26.13 25.76 19.16 21.24 23.86 24.12 21.25 21.34 20.80 24.14 24.49 14.00 16.99 11.26 10.69 5.21 7.08 13.90 16.14 18.87 21.18 10.87 5.50 -3.33 -9.04 -1.32 4.25 -11.28 -3.49 1.37 0.68 -5.99 -0.91 1.87 0.33 1.73 8.37 11.29 13.79 15.03 16.34 9.31 7.99 8.96
29.72 28.24 26.80 17.48 25.22 25.30 25.63 21.34 21.60 23.18 20.75 17.21 13.61 16.45 16.35 14.05 15.18 12.91 14.86 15.76 13.25 10.11 4.77 2.76 0.62 -7.64 -0.90 -10.88 -13.53 -10.69 0.89 0.24 4.26 5.21 4.35 6.74 4.62 9.49 7.77 14.25 15.37 14.82 9.01 6.54 7.04
34.91 33.74 30.98 27.37 21.34 19.54 21.68 23.61 23.56 24.81 24.16 25.63 21.19 15.77 11.80 16.98 20.56 21.17 20.96 18.63 16.26 11.66 8.28 5.54 2.24 -4.86 -9.10 -7.74 -9.59 -4.89 -0.78 -4.53 -3.10 -2.29 4.79 2.57 7.11 6.34 11.23 13.46 15.33 12.52 11.11 6.27 4.45
MSLP
1025.01 1024.64 1024.18 1023.76 1023.34 1022.91 1022.38 1021.85 1021.40 1020.97 1020.50 1020.11 1019.69 1019.42 1019.19 1019.05 1018.86 1018.78 1018.45 1018.23 1018.30 1018.11 1017.88 1017.82 1017.84 1017.79 1017.79 1018.07 1018.29 1018.65 1019.56 1019.56 1018.61 1017.51 1016.11 1015.65 1015.49 1014.97 1014.45 1014.34 1014.31 1013.86 1013.85 1013.28 1012.92
1025.14 1024.79 1024.39 1023.91 1023.28 1022.75 1022.23 1021.68 1021.15 1020.69 1020.26 1019.77 1019.37 1019.08 1018.90 1018.86 1018.94 1018.54 1018.27 1018.23 1018.30 1018.18 1018.33 1018.45 1018.42 1018.31 1018.39 1018.43 1018.56 1018.93 1019.51 1018.74 1017.95 1017.43 1016.25 1015.87 1015.84 1015.35 1015.09 1014.67 1014.65 1014.36 1013.90 1013.45 1013.22
1025.25 1024.82 1024.35 1023.85 1023.31 1022.73 1022.15 1021.64 1021.08 1020.55 1020.00 1019.55 1019.20 1018.96 1018.90 1018.98 1019.05 1018.61 1018.27 1018.42 1018.40 1018.38 1018.46 1018.57 1018.63 1018.70 1018.85 1018.72 1018.54 1018.66 1018.72 1018.37 1017.96 1017.54 1016.90 1015.84 1015.75 1015.70 1015.19 1013.98 1014.77 1014.39 1013.71 1013.46 1013.13
1025.26 1024.83 1024.34 1023.77 1023.19 1022.65 1022.06 1021.40 1020.79 1020.27 1019.76 1019.37 1019.08 1018.87 1018.86 1019.10 1019.37 1018.53 1018.43 1018.58 1018.55 1018.59 1018.68 1018.86 1019.01 1019.30 1019.50 1019.36 1018.82 1018.92 1018.50 1018.31 1018.06 1017.83 1017.42 1016.20 1015.95 1015.60 1015.65 1014.34 1014.48 1014.02 1013.26 1012.79 1012.53
1025.26 1024.80 1024.26 1023.64 1022.92 1022.27 1021.71 1021.10 1020.46 1019.81 1019.38 1019.16 1018.93 1018.85 1018.90 1019.05 1018.92 1018.66 1018.79 1018.86 1018.85 1018.82 1019.03 1019.17 1019.32 1019.53 1019.67 1019.57 1019.53 1019.17 1018.59 1018.60 1018.29 1018.08 1017.41 1015.98 1016.00 1015.50 1015.02 1014.51 1013.74 1013.28 1012.82 1012.44 1011.97
1025.43 1024.97 1024.41 1023.78 1023.05 1022.30 1021.56 1020.87 1020.22 1019.59 1019.06 1019.06 1018.90 1018.89 1019.02 1019.11 1018.79 1018.76 1018.94 1018.96 1018.98 1019.04 1019.32 1019.44 1019.70 1019.75 1019.91 1019.96 1019.91 1019.04 1018.99 1018.75 1018.40 1017.83 1017.34 1016.24 1015.48 1015.71 1014.67 1013.75 1013.09 1012.66 1012.12 1011.59 1011.36
1025.61 1025.12 1024.48 1023.75 1022.90 1022.08 1021.26 1020.49 1019.75 1019.20 1018.89 1018.96 1018.91 1019.04 1019.20 1019.23 1018.83 1018.92 1018.87 1018.89 1018.89 1019.04 1019.27 1019.37 1019.60 1019.95 1020.12 1020.09 1019.64 1019.31 1018.73 1018.60 1018.10 1017.75 1017.24 1016.45 1014.15 1015.49 1014.41 1013.39 1012.76 1012.27 1011.69 1011.04 1010.74
1025.58 1025.06 1024.37 1023.60 1022.74 1021.81 1020.83 1019.98 1019.36 1018.63 1018.79 1018.93 1018.90 1019.09 1019.21 1018.88 1018.87 1018.95 1018.85 1018.89 1018.93 1019.01 1019.16 1019.25 1019.52 1019.96 1020.30 1020.21 1020.04 1019.95 1019.33 1018.82 1017.95 1017.66 1017.03 1017.09 1013.51 1014.65 1014.16 1013.24 1012.36 1011.75 1011.25 1010.66 1010.15
1025.64 1025.00 1024.24 1023.45 1022.54 1021.55 1020.42 1019.39 1019.08 1018.73 1018.88 1018.91 1019.10 1019.10 1019.17 1018.81 1018.99 1019.02 1019.04 1019.09 1019.03 1019.09 1019.08 1019.19 1019.61 1020.20 1020.55 1020.87 1020.94 1020.50 1019.91 1018.93 1017.58 1017.49 1017.04 1017.03 1014.94 1013.85 1013.23 1012.70 1011.90 1011.49 1011.05 1010.49 1009.84
1025.59 1025.00 1024.20 1023.37 1022.60 1021.53 1020.17 1019.19 1019.08 1019.02 1019.09 1018.96 1019.37 1019.85 1019.59 1019.79 1019.63 1019.35 1019.02 1019.07 1019.23 1019.32 1019.36 1019.56 1020.20 1020.65 1021.17 1021.56 1021.47 1020.50 1020.05 1019.21 1018.17 1016.97 1016.67 1016.37 1015.05 1013.81 1012.54 1011.97 1011.54 1011.10 1010.74 1010.28 1009.88
1025.52 1024.91 1024.20 1023.36 1022.62 1021.68 1020.92 1020.07 1020.78 1020.53 1020.94 1021.47 1021.68 1021.28 1020.56 1020.11 1019.62 1019.33 1019.11 1019.22 1019.46 1020.05 1020.34 1020.48 1020.92 1020.96 1020.90 1021.17 1021.17 1020.82 1020.20 1019.37 1018.35 1017.60 1017.29 1016.48 1015.20 1013.38 1012.09 1011.63 1010.84 1010.22 1010.39 1010.01 1010.08
1025.50 1024.77 1024.09 1023.27 1022.57 1022.08 1022.13 1022.99 1024.17 1024.38 1023.31 1021.84 1021.50 1021.25 1020.66 1020.43 1020.12 1019.40 1019.33 1019.75 1019.95 1020.44 1020.70 1021.29 1020.79 1020.42 1020.61 1020.68 1020.78 1020.52 1019.93 1019.30 1018.34 1017.77 1017.65 1016.49 1015.24 1013.16 1012.38 1011.24 1010.06 1009.73 1010.56 1010.86 1011.16
1025.45 1024.77 1023.94 1023.02 1022.41 1022.79 1023.38 1024.09 1024.26 1024.29 1024.20 1021.86 1021.07 1020.77 1020.58 1020.60 1020.16 1019.56 1019.56 1019.92 1020.41 1021.01 1021.48 1022.00 1020.50 1020.59 1020.82 1020.72 1020.27 1020.26 1019.90 1019.25 1019.04 1018.02 1017.76 1017.21 1015.53 1013.29 1012.04 1011.51 1010.44 1010.29 1011.45 1011.73 1011.80
1025.44 1024.83 1024.21 1023.07 1022.96 1023.50 1023.84 1024.05 1023.97 1024.17 1024.06 1021.96 1020.94 1020.67 1020.58 1020.53 1020.47 1019.94 1019.92 1020.63 1021.11 1021.43 1021.61 1021.60 1021.03 1020.94 1020.80 1020.91 1020.69 1020.03 1019.94 1019.66 1019.63 1019.48 1018.67 1018.21 1017.23 1014.39 1012.81 1012.28 1012.67 1012.49 1012.35 1012.51 1012.61
1025.50 1024.93 1024.28 1023.62 1024.21 1024.10 1024.36 1024.05 1023.93 1024.23 1023.62 1021.60 1020.82 1020.57 1020.59 1021.25 1021.00 1020.84 1020.71 1020.85 1021.61 1022.22 1022.90 1022.33 1021.52 1021.22 1021.23 1020.96 1020.87 1020.65 1020.53 1020.45 1020.30 1020.46 1020.50 1018.79 1018.63 1015.36 1013.77 1013.49 1013.58 1013.41 1013.12 1013.07 1012.93
1025.52 1024.90 1024.40 1024.27 1024.39 1024.27 1024.15 1023.97 1024.13 1024.27 1022.56 1021.41 1021.05 1021.23 1021.66 1021.37 1021.71 1021.88 1021.79 1021.99 1022.42 1022.83 1023.24 1023.11 1021.81 1021.59 1021.36 1021.51 1021.58 1021.39 1021.18 1021.10 1021.43 1022.22 1022.66 1020.12 1019.23 1016.34 1014.89 1014.09 1013.55 1013.56 1013.70 1013.32 1012.96
1025.20 1024.69 1024.44 1024.37 1024.57 1024.00 1023.93 1024.19 1024.61 1023.81 1022.69 1022.82 1022.62 1022.65 1022.90 1022.93 1023.09 1023.74 1023.95 1024.47 1025.34 1025.43 1025.19 1024.62 1022.99 1022.11 1021.94 1022.10 1022.43 1022.60 1022.75 1023.16 1023.38 1023.80 1022.96 1020.23 1018.97 1016.47 1014.91 1014.32 1014.14 1014.21 1013.79 1013.47 1013.36
1025.06 1024.53 1024.62 1024.53 1024.41 1024.04 1023.94 1024.40 1024.97 1024.60 1024.11 1023.77 1023.74 1023.79 1024.22 1024.72 1025.03 1025.38 1025.92 1026.67 1027.03 1027.61 1027.33 1026.52 1024.39 1023.46 1023.03 1023.40 1023.17 1023.03 1023.82 1024.23 1024.09 1024.45 1022.96 1020.59 1018.84 1016.16 1014.90 1014.46 1014.58 1014.48 1014.06 1013.69 1013.57
1025.18 1025.09 1024.80 1024.44 1024.16 1024.02 1024.50 1025.02 1025.00 1024.92 1024.94 1025.00 1024.89 1025.21 1025.64 1026.01 1026.63 1027.12 1027.22 1027.43 1027.49 1027.95 1029.20 1028.19 1026.17 1024.50 1023.62 1023.45 1023.49 1023.56 1024.18 1023.82 1024.07 1024.63 1023.98 1021.66 1018.86 1016.40 1015.29 1015.00 1015.02 1014.61 1014.14 1013.91 1013.61
1025.65 1025.77 1025.14 1024.49 1024.37 1024.42 1025.24 1025.48 1024.96 1024.69 1024.82 1025.52 1026.58 1026.92 1027.51 1027.49 1028.41 1028.42 1028.25 1027.37 1027.63 1027.82 1028.02 1028.54 1026.83 1024.76 1024.00 1024.06 1023.63 1024.14 1024.22 1024.27 1024.70 1024.88 1024.29 1022.36 1020.39 1018.36 1016.96 1016.37 1015.51 1014.82 1014.49 1014.03 1013.70
1025.86 1025.97 1024.95 1024.68 1024.67 1025.19 1025.97 1025.84 1025.07 1024.64 1025.23 1026.25 1026.96 1027.52 1028.13 1028.54 1028.66 1028.66 1027.90 1026.85 1026.70 1027.34 1027.87 1028.92 1029.28 1026.51 1025.64 1025.00 1025.07 1024.88 1025.21 1025.13 1025.08 1025.50 1025.28 1024.26 1021.24 1018.81 1018.19 1017.36 1016.32 1015.28 1014.48 1014.10 1013.77
1026.08 1026.29 1024.97 1025.02 1026.04 1026.31 1026.56 1025.48 1025.04 1025.14 1025.32 1025.92 1026.65 1027.55 1028.29 1029.03 1028.92 1028.40 1027.13 1026.40 1026.33 1026.92 1028.34 1028.70 1028.82 1028.22 1026.45 1025.31 1025.57 1025.94 1026.13 1026.43 1026.64 1026.68 1026.19 1025.35 1020.75 1018.74 1017.87 1017.08 1016.39 1015.25 1014.57 1014.12 1014.02
1026.03 1025.90 1025.29 1025.38 1026.23 1026.65 1026.25 1025.77 1025.27 1025.19 1025.86 1026.30 1026.77 1027.06 1027.81 1029.19 1029.19 1027.92 1026.69 1025.58 1025.63 1026.69 1027.49 1028.32 1028.90 1029.26 1027.67 1026.96 1026.72 1027.04 1027.24 1027.41 1027.59 1027.24 1026.21 1025.52 1021.63 1018.51 1017.77 1016.67 1015.87 1015.30 1014.55 1014.37 1014.24
1026.09 1026.27 1025.86 1026.18 1026.49 1026.55 1026.68 1026.09 1025.80 1025.23 1025.64 1025.91 1026.21 1026.70 1027.63 1028.17 1027.97 1026.88 1026.03 1025.22 1025.41 1025.97 1026.66 1027.37 1028.82 1030.09 1030.01 1028.76 1028.87 1028.87 1027.76 1027.79 1027.92 1027.70 1025.79 1023.92 1021.38 1019.15 1018.06 1016.98 1015.76 1015.09 1014.62 1014.73 1014.38
1025.36 1025.23 1024.98 1025.60 1025.70 1025.83 1025.72 1025.60 1025.50 1025.24 1025.47 1025.59 1026.15 1026.49 1027.11 1027.55 1027.13 1026.10 1025.45 1025.41 1025.64 1025.69 1026.60 1027.91 1029.15 1029.64 1029.28 1028.78 1028.90 1028.40 1027.76 1027.09 1027.61 1026.01 1025.23 1022.43 1021.38 1019.49 1018.33 1017.26 1016.32 1015.81 1015.31 1015.12 1014.35
1024.45 1024.71 1025.31 1025.07 1024.93 1025.22 1025.10 1024.54 1024.43 1024.27 1025.04 1024.95 1025.20 1025.45 1025.90 1026.26 1025.97 1024.87 1024.61 1025.10 1025.77 1026.27 1027.25 1028.44 1028.99 1029.44 1029.24 1028.35 1028.43 1028.16 1026.38 1025.95 1025.39 1024.36 1023.40 1022.24 1020.76 1018.96 1017.84 1017.05 1016.35 1016.05 1015.71 1015.55 1014.62
1022.85 1023.18 1023.62 1023.43 1024.03 1024.32 1023.73 1022.93 1022.74 1023.33 1023.12 1023.01 1023.44 1024.80 1025.18 1024.52 1024.36 1024.50 1024.42 1024.24 1024.97 1025.87 1027.17 1028.47 1029.09 1029.89 1029.68 1028.53 1028.25 1027.25 1025.01 1024.62 1024.17 1023.35 1022.54 1021.74 1020.03 1018.78 1018.00 1017.34 1016.49 1016.26 1016.11 1015.91 1014.87
Wind_Speed
18 19 19 19 19 19 19 19 19 19 20 20 20 18 16 13 11 3 1 1 3 4 4 3 5 7 4 1 1 3 2 3 6 4 7 1 6 4 4 7 3 2 3 6 8
19 19 20 19 20 20 20 21 22 20 21 20 21 18 14 11 3 3 3 7 5 6 4 6 5 7 4 1 2 4 4 8 6 5 16 7 8 7 7 15 9 7 7 8 11
20 20 21 21 22 23 23 22 22 21 21 21 17 12 9 4 1 2 6 5 5 6 3 1 2 2 3 1 2 4 6 7 7 11 15 18 15 7 7 21 11 15 7 9 9
20 21 22 23 24 24 24 24 23 23 20 16 12 8 6 1 2 2 6 5 4 4 4 4 4 3 1 3 3 5 7 8 13 6 8 18 14 10 12 20 8 13 15 9 13
21 22 24 26 27 27 27 26 25 23 20 13 9 5 2 2 1 3 5 4 3 4 5 4 3 1 2 4 5 10 9 5 8 14 17 22 17 22 19 15 18 17 17 18 17
21 23 25 26 27 28 28 27 24 21 15 8 5 5 2 1 1 6 5 2 3 3 3 4 1 3 5 6 5 3 5 8 6 15 16 23 17 10 18 19 18 18 18 17 15
21 24 26 27 28 28 29 27 26 20 7 3 2 1 2 1 1 5 3 2 1 1 2 2 3 1 2 5 6 6 15 10 9 6 7 10 24 8 15 16 11 11 10 11 12
22 24 26 27 28 30 30 28 26 15 2 2 2 2 1 1 4 2 1 3 2 3 3 5 3 3 3 5 6 6 2 6 3 13 4 10 27 17 18 20 20 18 19 12 14
22 24 27 27 28 29 29 27 14 6 4 2 3 2 3 1 2 2 1 3 4 2 3 2 3 2 4 4 4 2 11 19 17 13 11 6 25 23 21 17 16 14 14 13 16
22 24 27 28 28 29 26 23 8 5 7 1 3 3 3 4 4 5 3 1 2 4 6 3 2 1 2 4 8 16 19 17 23 17 17 15 22 19 24 20 17 17 12 11 11
22 24 27 28 27 22 13 6 9 7 10 0 7 4 3 7 3 3 2 1 1 2 3 3 3 10 12 5 7 13 17 18 20 20 12 19 21 25 25 20 20 16 8 8 7
22 25 28 30 26 15 5 7 3 3 9 4 5 5 6 1 3 3 1 3 1 6 2 4 12 11 6 6 13 11 16 15 17 13 14 18 27 25 18 16 18 14 3 7 7
22 24 27 30 16 7 7 4 2 3 2 7 4 3 3 1 3 4 3 1 3 3 2 4 16 12 5 13 17 12 13 11 16 21 14 8 13 14 13 10 15 15 12 7 6
21 23 24 28 5 3 3 4 3 5 5 2 1 1 1 1 3 3 2 2 3 4 5 8 4 8 12 14 15 15 9 11 16 14 11 5 7 8 10 8 12 11 11 11 9
21 23 25 12 4 2 4 5 3 3 5 2 1 1 2 4 8 3 5 3 5 13 4 9 11 14 10 10 14 8 13 11 18 13 4 7 4 9 13 8 7 6 7 7 6
18 23 23 4 2 1 5 4 2 6 6 2 2 4 6 5 5 8 5 6 5 3 4 4 9 3 4 6 8 10 9 16 5 4 4 6 6 7 2 3 2 2 8 8 8
16 21 10 2 4 6 3 3 6 5 4 8 5 5 14 6 4 7 6 8 3 9 6 7 5 5 5 14 7 9 8 6 7 6 7 7 6 9 2 4 2 4 9 8 7
17 19 6 1 5 5 3 7 4 2 3 3 7 14 3 9 4 7 5 4 7 6 2 4 10 6 14 12 6 14 5 2 6 3 9 8 5 7 5 3 4 7 8 10 9
11 4 3 4 5 2 5 4 5 2 2 7 8 5 4 1 2 8 2 3 4 3 3 6 7 17 16 8 3 4 4 6 5 1 4 3 7 12 5 6 9 14 14 12 9
2 3 4 5 5 4 6 4 2 1 3 3 2 2 3 4 5 7 4 3 4 3 5 6 13 7 4 7 4 2 6 6 4 5 5 5 6 6 11 10 17 16 15 13 9
3 4 3 5 3 5 4 6 3 3 3 4 4 5 4 3 3 3 5 5 5 2 4 4 4 10 7 2 7 7 5 4 2 2 3 4 8 8 7 6 13 14 15 11 10
1 3 2 3 4 0 2 5 3 3 1 5 3 6 6 3 3 4 7 7 5 4 1 5 4 4 12 10 6 4 6 3 2 8 2 3 10 3 5 9 7 13 14 12 9
2 3 2 4 2 3 4 4 2 4 4 3 4 7 3 5 5 5 5 5 3 3 1 3 4 6 12 9 7 3 4 3 1 1 7 3 10 4 16 16 14 13 13 12 13
2 3 4 4 0 4 1 4 4 1 4 4 5 4 3 4 7 8 7 4 3 5 18 4 1 8 8 13 3 5 10 1 5 1 4 9 12 19 15 16 19 17 15 12 11
3 6 3 3 4 5 5 5 4 3 4 5 4 6 7 5 4 8 9 6 9 10 2 6 5 5 9 17 4 9 17 11 8 9 5 10 7 17 14 16 15 13 10 12 14
5 3 1 2 2 7 8 7 8 4 7 6 7 7 8 9 11 20 13 10 6 4 4 1 5 3 10 3 4 6 10 10 12 6 7 10 13 9 9 11 12 10 10 11 14
3 2 4 6 5 6 7 9 11 7 9 10 8 5 7 18 15 16 13 10 10 9 4 3 3 2 8 3 4 4 7 5 5 4 4 3 9 6 13 15 14 9 10 10 13
Wind_Direction
12 8 3 1 355 350 348 345 342 339 338 332 327 322 320 325 328 309 226 122 120 14 47 345 22 3 21 79 195 97 67 247 258 268 260 35 334 287 257 253 186 269 255 252 292
10 6 1 356 352 349 345 343 342 337 335 329 323 319 319 332 346 358 131 101 77 32 42 38 360 348 7 283 222 132 157 225 220 263 288 273 269 268 280 291 276 280 270 291 317
7 2 359 353 349 347 343 341 337 334 332 328 326 321 321 6 33 100 114 90 54 37 35 316 320 325 348 315 227 192 217 249 278 286 299 300 291 293 277 280 273 285 251 254 256
4 0 356 351 346 343 341 337 336 333 333 336 331 333 330 77 15 208 114 97 55 22 24 30 8 57 294 243 248 291 247 272 294 314 307 290 305 276 268 284 277 264 264 265 261
1 358 354 349 344 342 339 337 335 335 334 339 336 353 34 25 88 135 100 51 359 11 46 22 55 62 213 247 315 248 261 282 302 301 291 292 289 287 289 285 286 279 272 264 265
359 354 350 345 342 339 337 335 334 334 334 344 352 358 39 57 121 132 128 39 53 56 11 29 18 288 253 240 201 272 276 278 260 277 282 280 287 300 295 290 284 280 280 274 263
355 350 346 344 341 338 335 333 334 329 337 342 340 23 62 63 173 149 151 186 208 161 304 222 156 109 356 274 290 284 298 293 257 261 266 306 286 278 292 294 283 282 287 283 270
355 348 343 342 340 337 333 330 333 333 70 25 48 98 139 359 130 151 239 305 336 246 220 231 219 209 207 305 326 301 303 316 2 296 253 309 293 309 292 288 286 287 291 266 262
354 347 345 343 340 337 331 326 336 50 52 64 68 90 79 129 88 329 308 274 312 314 298 230 120 209 348 331 316 255 294 311 313 321 310 282 291 296 292 286 280 279 273 277 281
352 350 347 343 342 338 334 331 6 25 351 107 36 81 27 317 319 318 288 263 286 330 336 93 64 336 352 61 300 303 309 302 309 320 313 307 292 297 294 295 289 278 268 260 267
350 350 349 342 344 347 355 7 11 356 36 38 295 273 263 302 259 244 287 319 160 11 306 306 305 272 281 253 268 294 296 300 300 308 308 298 301 294 292 295 285 276 266 283 75
348 348 348 341 341 20 35 63 80 230 317 314 259 258 260 332 323 288 7 319 269 271 317 358 262 274 293 295 305 301 292 293 300 304 309 305 293 290 297 286 283 281 122 62 43
346 346 344 340 341 47 81 62 341 112 269 294 230 260 291 21 303 276 141 26 254 282 266 182 272 307 287 320 305 301 293 295 307 312 298 304 294 309 317 356 31 54 77 58 40
341 343 346 339 53 337 55 337 48 109 60 292 353 24 358 229 302 326 25 349 328 276 302 266 279 327 317 307 306 301 295 307 311 323 303 99 282 306 335 352 27 32 41 25 7
337 338 345 353 278 14 330 334 134 65 2 253 78 265 326 70 281 9 335 37 234 295 105 261 312 307 319 299 318 288 314 301 307 290 34 338 63 279 327 59 24 348 354 353 346
337 332 343 353 0 255 315 316 88 38 263 325 70 19 2 304 345 344 7 19 317 16 342 296 272 193 224 355 317 329 321 323 24 88 26 246 107 286 334 281 178 339 339 328 318
332 330 342 356 309 313 333 63 13 123 335 331 328 4 334 339 1 26 351 11 34 357 348 321 339 335 44 341 332 2 358 304 347 0 224 289 327 246 208 243 189 283 314 309 309
333 332 326 92 305 326 47 45 106 252 314 353 347 318 332 11 19 340 10 360 30 74 349 12 329 10 336 308 263 314 182 222 288 260 287 307 246 266 210 201 355 292 287 304 306
344 331 333 297 327 29 61 53 206 235 269 333 330 30 319 225 23 8 334 207 148 145 102 329 260 309 292 336 77 340 18 233 259 64 43 266 289 303 180 327 346 333 332 320 295
344 343 285 315 347 52 78 242 147 176 103 73 215 112 263 295 31 29 325 220 160 121 155 260 296 283 289 3 308 8 277 339 348 315 302 293 283 237 316 313 329 332 330 317 303
29 332 268 339 43 48 139 227 252 162 113 133 232 283 245 296 161 236 243 262 176 251 87 150 166 283 7 227 254 334 330 298 174 118 318 319 267 226 250 257 309 311 322 315 310
77 300 291 32 52 44 166 199 220 245 175 240 249 224 213 211 251 245 230 217 146 94 317 229 246 271 256 287 203 198 217 218 29 308 259 180 274 212 221 286 284 305 317 317 309
226 257 331 83 180 227 290 274 245 156 225 193 249 208 128 200 304 234 257 245 104 103 272 242 254 311 333 347 357 55 299 78 109 95 227 162 268 288 323 319 322 318 317 323 316
143 301 311 60 143 128 168 247 267 272 238 201 238 201 104 228 226 263 246 298 249 309 300 90 80 185 238 243 156 320 283 222 153 187 236 235 285 300 310 316 326 325 320 319 301
175 230 200 228 233 186 167 178 207 260 215 201 308 211 176 261 242 236 264 269 286 288 99 119 245 183 249 257 184 257 267 270 186 219 228 277 280 290 291 308 310 306 299 318 319
172 185 170 233 173 181 199 201 205 204 183 240 214 217 200 224 224 281 287 284 232 323 127 273 258 132 286 348 165 253 262 248 244 253 244 264 276 250 273 294 315 313 312 314 313
183 148 157 179 171 151 206 199 206 181 224 228 194 173 226 237 236 253 258 245 232 231 177 196 212 40 271 313 339 341 235 222 261 226 192 249 247 312 313 319 319 309 302 298 298